Content
SEND FEEDBACK

Daily
Averages
Monthly
Summary
Canada

INGONISH BEACH, NOVA SCOTIA


Home > North America > Canada > Nova Scotia
Elevation: 16 feet     Latitude: 46 39N     Longitude: 060 24W

WEATHER
 
SELECT A DAY
Number of Records: 127,837;   Date Range: 12/10/00 - 8/19/14
 
SHARE

PRINT THIS DATA

[ ← Previous Day ]
WEATHER ALMANAC - JANUARY 1, 2013
[ Next Day → ]
[ °C ]   °F
Weather ElementAverageHighLow
Temperature25.8 °F29 °F (2:00 pm)19.9 °F (11:00 pm)
Dewpoint20.1 °F23.7 °F (1:00 am)16.5 °F (11:00 pm)
Humidity78.1 %87 % (7:00 pm)64 % (2:00 pm)
Barometer29.31 in29.37 in (3:00 am)29.26 in (1:00 pm)
Wind Speed6.8 mph15 mph (11:00 am)
Wind Gust28.8 mph (11:00 am)
Weather ElementAverage
Wind DirectionWSW (261.9 °)

Weather ElementTotal
Precipitation0.02 in
Heating Degree Days40.6 (Base 65)
Averaged from 27 records on January 1, 2013
WEATHER CONDITIONS BREAKOUT
WIND DIRECTION BREAKOUT
WEATHER BY HOUR - JANUARY 1, 2013
[ °C ]   °F
Local TimeTemperatureDewpointHumidityBarometerVisibilityWind DirectionWind SpeedGust SpeedPrecipitationEventsConditions
1:00 AM28.6 °F23.7 °F82 %29.32 inWest (270°)5.8 mph
2:00 AM28.0 °F22.0 °F69 %29.34 inWest (260°)6.9 mph
2:00 AM27.9 °F21.7 °F78 %29.34 inWest (260°)6.9 mph
3:00 AM27.0 °F22.8 °F84 %29.37 inWest (260°)5.8 mph
4:00 AM26.4 °F20.7 °F79 %29.35 inWest (270°)6.9 mph18.4 mph
5:00 AM25.5 °F21.4 °F84 %29.36 inWest (280°)3.5 mph
6:00 AM25.2 °F20.5 °F82 %29.36 inWest (270°)6.9 mph
7:00 AM25.2 °F19.2 °F78 %29.35 inWest (270°)4.6 mph
8:00 AM25.0 °F19.0 °F71 %29.34 inWest (260°)3.5 mph
8:00 AM25.3 °F19.4 °F78 %29.34 inWest (260°)3.5 mph
9:00 AM25.5 °F19.8 °F79 %29.35 inWSW (250°)8.1 mph
10:00 AM25.3 °F19.6 °F79 %29.33 inWest (260°)9.2 mph18.4 mph
11:00 AM26.2 °F18.9 °F74 %29.29 inWest (260°)15.0 mph28.8 mph
12:00 PM27.1 °F19.9 °F74 %29.27 inWest (260°)12.7 mph25.3 mph
1:00 PM28.9 °F19.9 °F69 %29.26 inWest (260°)9.2 mph19.6 mph
2:00 PM29.0 °F22.0 °F64 %29.26 inWSW (250°)8.1 mph
2:00 PM28.6 °F21.6 °F75 %29.26 inWSW (250°)8.1 mph18.4 mph
3:00 PM27.9 °F21.7 °F78 %29.27 inWest (260°)6.9 mph
4:00 PM27.0 °F20.8 °F78 %29.27 inWSW (240°)3.5 mph
5:00 PM26.1 °F20.1 °F78 %29.28 inWest (260°)9.2 mph18.4 mph
6:00 PM25.5 °F19.4 °F78 %29.28 inWest (260°)8.1 mph
7:00 PM24.4 °F21.0 °F87 %29.29 inWest (260°)5.8 mph
8:00 PM23.0 °F18.0 °F75 %29.29 inWest (270°)4.6 mph
8:00 PM23.4 °F18.3 °F81 %29.29 inWest (270°)4.6 mph
9:00 PM22.5 °F18.0 °F83 %29.27 inWest (270°)4.6 mph
10:00 PM21.4 °F17.8 °F86 %29.29 inWest (270°)6.9 mph17.3 mph0.02 in
11:00 PM19.9 °F16.5 °F87 %29.29 inWest (260°)5.8 mph
Hourly data recorded from CXIB, located miles away from Ingonish Beach, Nova Scotia







STORIES FROM OUR PARTNERS